Weather History for Paso Robles, CA

Change the Weather History Date:

Tuesday, January 8, 2013

  Actual Average Record
Temperature  
Mean Temperature 47 °F 47 °F  
Max Temperature 60 °F 59 °F 73 °F (1996)
Min Temperature 34 °F 34 °F 22 °F (1955)
Degree Days  
Heating Degree Days 18 18  
Month to date heating degree days 165 149  
Since 1 July heating degree days 1104 1273  
Cooling Degree Days 0 0  
Month to date cooling degree days 0 0  
Year to date cooling degree days 0 0  
Moisture  
Dew Point 39 °F    
Average Humidity 73    
Maximum Humidity 93    
Minimum Humidity 53    
Precipitation  
Precipitation 0.00 in 0.09 in 0.92 in (1979)
Month to date precipitation 0.41 0.68  
Year to date precipitation 0.41 0.68  
Since 1 July precipitation 3.62 4.67  
Sea Level Pressure  
Sea Level Pressure 30.17 in    
Wind  
Wind Speed 5 mph (East)    
Max Wind Speed 15 mph    
Max Gust Speed 25 mph    
Visibility 9 miles    
Events      
T = Trace of Precipitation, MM = Missing Value Source: NWS Daily Summary

Daily Weather History Graph

Daily Weather History Graph

Search for Another Location

Airport:

Trip Planner

Search our weather history database for the weather conditions in past years. The results will help you decide how hot, cold, wet, or windy it might be!

Date:

Astronomy

Jan. 08, 2013 Rise Set
Actual Time 7:12 AM PST 5:06 PM PST
Civil Twilight 6:44 AM PST 5:34 PM PST
Nautical Twilight 6:13 AM PST 6:06 PM PST
Astronomical Twilight 5:42 AM PST 6:36 PM PST
Moon 3:52 AM PST (1/8) 2:13 PM PST (1/8)
Length of Visible Light 10h 49m
Length of Day
9h 53m
Waning Crescent, 13% of the Moon is Illuminated
Jan 8
Waning Crescent
Jan 11
New
Jan 18
First Quarter
Jan 26
Full
Feb 3
Last Quarter

Hourly Weather History & Observations

Time (PST) Temp. Windchill Dew Point Humidity Pressure Visibility Wind Dir Wind Speed Gust Speed Precip Events Conditions
12:53 AM 39.0 °F 36.8 °F 37.0 °F 93% 30.17 in 9.0 mi ENE 3.5 mph - N/A   Clear
1:53 AM 37.0 °F - 36.0 °F 96% 30.17 in 7.0 mi Calm Calm - N/A   Clear
2:53 AM 37.0 °F 34.5 °F 35.1 °F 93% 30.19 in 8.0 mi NE 3.5 mph - N/A   Clear
3:53 AM 37.0 °F 31.6 °F 35.1 °F 93% 30.17 in 5.0 mi East 6.9 mph - N/A   Clear
4:53 AM 37.0 °F - 36.0 °F 96% 30.17 in 6.0 mi Calm Calm - N/A   Clear
5:53 AM 37.0 °F 33.3 °F 35.1 °F 93% 30.18 in 8.0 mi ESE 4.6 mph - N/A   Clear
6:53 AM 36.0 °F 31.1 °F 34.0 °F 93% 30.18 in 6.0 mi NE 5.8 mph - N/A   Clear
7:53 AM 37.0 °F 33.3 °F 35.1 °F 93% 30.19 in 4.0 mi ENE 4.6 mph - N/A   Clear
8:53 AM 41.0 °F - 39.0 °F 93% 30.20 in 8.0 mi Calm Calm - N/A   Clear
9:53 AM 46.0 °F 43.1 °F 39.9 °F 79% 30.22 in 10.0 mi North 5.8 mph - N/A   Clear
10:53 AM 53.1 °F - 42.1 °F 66% 30.20 in 10.0 mi East 5.8 mph - N/A   Clear
11:53 AM 55.0 °F - 42.1 °F 62% 30.17 in 10.0 mi Variable 5.8 mph - N/A   Clear
12:53 PM 57.9 °F - 43.0 °F 58% 30.15 in 10.0 mi Variable 4.6 mph - N/A   Clear
1:53 PM 59.0 °F - 43.0 °F 55% 30.13 in 10.0 mi East 8.1 mph - N/A   Clear
2:53 PM 60.1 °F - 46.0 °F 60% 30.13 in 10.0 mi East 9.2 mph - N/A   Clear
4:53 PM 55.0 °F - 43.0 °F 64% 30.13 in 10.0 mi East 10.4 mph - N/A   Clear
5:53 PM 50.0 °F - 42.1 °F 74% 30.14 in 10.0 mi East 9.2 mph - N/A   Clear
6:53 PM 48.9 °F - 41.0 °F 74% 30.14 in 10.0 mi East 10.4 mph - N/A   Clear
7:53 PM 46.0 °F 43.9 °F 39.0 °F 76% 30.15 in 10.0 mi East 4.6 mph - N/A   Clear
9:53 PM 43.0 °F - 37.9 °F 82% 30.17 in 10.0 mi Calm Calm - N/A   Clear
10:53 PM 41.0 °F 39.0 °F 37.9 °F 89% 30.16 in 9.0 mi SSE 3.5 mph - N/A   Clear
11:53 PM 39.9 °F - 36.0 °F 86% 30.16 in 10.0 mi Calm Calm - N/A   Clear